Regional Weather Roundup
Issued by NWS

Home | Current Version | Previous Version | Text Only | Print | Product List | Glossary On
Versions: 1 2 3 4 5 6 7 8 9 10 11 12 13 14 15 16 17 18 19 20 21 22 23 24 25 26 27 28 29 30 31 32 33 34 35 36 37 38 39 40 41 42 43 44 45 46 47 48 49 50
000
ASPQ40 PGUM 231812
RWRPQ
WEATHER ROUNDUP FOR THE MARIANAS AND MICRONESIA
NATIONAL WEATHER SERVICE TIYAN GU
400 AM CHST SAT FEB 24 2018

GUZ001>004-231900-
MARIANA ISLANDS-

CITY           SKY/WX    TMP DP  RH WIND       PRES   REMARKS
GUAM AIRPORT   NOT AVBL
ANDERSEN AFB   PTCLDY    77  70  78 E13       29.94S
ROTA AIRPORT   NOT AVBL
TINIAN AP      NOT AVBL
SAIPAN AP      PTCLDY    79  75  89 E16       29.94S

$$

PMZ161-231900-
REPUBLIC OF PALAU-

CITY           SKY/WX    TMP DP  RH WIND       PRES   REMARKS
KOROR AP       CLOUDY    79  77  94 E6G17     29.78F
KOROR WSO      HVY RAIN  79  77  94 E5        29.79F

$$

PMZ171>174-231900-
FEDERATED STATES OF MICRONESIA-

CITY           SKY/WX    TMP DP  RH WIND       PRES   REMARKS
YAP AIRPORT    CLOUDY    81  79  94 VRB6      29.78F
CHUUK AP       MOCLDY    81  77  89 NE9       29.82F
POHNPEI AP     NOT AVBL
POHNPEI WSO    LGT RAIN  81  75  83 E5G18     29.83R
KOSRAE AP      NOT AVBL

$$

PMZ181-231900-
REPUBLIC OF THE MARSHALL ISLANDS-

CITY           SKY/WX    TMP DP  RH WIND       PRES   REMARKS
KWAJALEIN AP   PTCLDY    81  73  78 E20       29.83R
MAJURO AP      NOT AVBL
MAJURO WSO     MOCLDY    81  75  83 E12       29.79R

$$




USA.gov is the U.S. government's official web portal to all federal, state and local government web resources and services.